[[{"header":{"parameterUnit":"m.s-1","parameterCategory":1,"la1":30.2991,"la2":30.254,"lo1":-89.0895,"lo2":-89.0444,"dy":0.0017,"dx":0.0017,"nx":28,"ny":28,"refTime":"2024-04-07T21:00:00:Z","depth":0,"parameterNumber":2,"parameterNumberName":"U-component_of_WINDS"},"data":[0,0,0,0,0,0,0,0,0,0,0,0,0,0,0,0,0,0,0,0,0,0,0,0,0,0,0,0,0,0,0,0,0,0,0,0,0,0,0,0,0,0,0,0,0,0,0,0,0,0,0,0,0,0,0,0,0,0,-3.7264,-3.7265,0,-3.7335,-3.7335,-3.7336,-3.7332,-3.7331,-3.733,-3.7329,-3.74,-3.7403,-3.7406,0,0,0,0,0,0,0,0,0,0,0,0,0,-3.7127,-3.713,-3.7264,-3.7265,-3.7266,-3.7334,-3.7335,-3.7336,-3.7332,-3.7331,-3.733,-3.7329,-3.7399,-3.7403,-3.7406,0,0,0,0,0,0,0,0,0,0,0,0,0,-3.7191,-3.713,-3.7264,-3.7272,-3.7274,-3.7334,-3.7335,-3.7337,-3.7333,-3.7331,-3.733,-3.7328,-3.7398,-3.7402,-3.7406,-3.7463,0,0,-3.7419,-3.7421,0,0,0,0,0,0,0,0,-3.7187,-3.7196,-3.727,-3.7272,-3.7274,-3.7323,-3.7313,-3.7379,-3.7333,-3.731,-3.7329,-3.7328,-3.7376,-3.7382,-3.7398,-3.7466,-3.7469,-3.742,-3.7422,-3.7424,-3.7425,0,0,0,0,0,0,0,-3.7183,-3.7193,-3.7292,-3.7271,-3.7273,-3.7273,-3.728,-3.7326,-3.7351,-3.7312,-3.7312,-3.7321,-3.7376,-3.7394,-3.74,-3.747,-3.742,-3.7423,-3.7426,-3.7428,-3.759,-3.7591,0,0,0,0,0,0,-3.7177,-3.7189,-3.729,-3.7294,-3.7226,-3.7276,-3.7285,-3.7309,-3.735,-3.7355,-3.7322,-3.732,-3.7388,-3.7395,-3.7402,-3.7471,-3.7424,-3.7428,-3.743,-3.7588,-3.759,-3.7592,0,0,0,0,0,0,-3.7174,-3.7186,-3.7287,-3.7242,-3.7255,-3.728,-3.7307,-3.7311,-3.7329,-3.7357,-3.7362,-3.7335,-3.7387,-3.7396,-3.7448,-3.7473,-3.743,-3.7434,-3.7586,-3.7589,-3.7591,-3.7609,0,0,0,0,0,0,-3.717,-3.7185,-3.7206,-3.7242,-3.7257,-3.7331,-3.7309,-3.7313,-3.7336,-3.7335,-3.7371,-3.7376,-3.7386,-3.7442,-3.7452,-3.7478,-3.7437,-3.7584,-3.7587,-3.759,-3.7606,-3.7612,-3.7616,0,0,0,0,0,-3.7165,-3.7207,-3.7207,-3.7219,-3.7284,-3.7333,-3.7341,-3.7353,-3.7338,-3.736,-3.7379,-3.7374,-3.747,-3.7447,-3.7459,-3.7487,-3.7582,-3.7586,-3.759,-3.7603,-3.761,-3.7616,0,0,0,0,0,0,-3.7172,-3.7212,-3.7212,-3.7268,-3.7297,-3.7332,-3.7359,-3.736,-3.7393,-3.739,-3.7403,-3.7411,-3.7463,-3.7481,-3.7455,-3.7544,-3.7524,-3.7531,-3.753,-3.7537,-3.7542,-3.7536,-3.7441,0,0,0,0,0,-3.7181,-3.7217,-3.725,-3.7296,-3.7311,-3.7333,-3.7354,-3.7361,-3.7392,-3.7404,-3.7426,-3.7456,-3.7493,-3.7517,-3.7552,-3.761,-3.7618,-3.7635,-3.764,-3.7644,-3.7649,-3.7681,-3.7689,-3.7605,-3.7605,-3.7605,0,0,-3.7197,-3.7224,-3.7245,-3.7298,-3.7321,-3.7358,-3.7343,-3.7383,-3.741,-3.741,-3.746,-3.7478,-3.7512,-3.7568,-3.7593,-3.7584,-3.7675,-3.765,-3.7653,-3.7655,-3.7686,-3.7694,-3.7701,-3.7608,-3.7607,-3.7607,0,0,-3.7246,-3.7271,-3.7311,-3.7336,-3.7372,-3.7387,-3.7398,-3.7433,-3.7446,-3.7497,-3.7497,-3.7531,-3.7594,-3.7619,-3.7639,-3.7702,-3.7699,-3.7714,-3.774,-3.7771,-3.7778,-3.7783,-3.7805,-3.7812,-3.7719,-3.7719,-3.7719,0,-3.7262,-3.7318,-3.7332,-3.7373,-3.7396,-3.7399,-3.7441,-3.7464,-3.751,-3.7526,-3.7515,-3.7596,-3.7619,-3.768,-3.7696,-3.7713,-3.7725,-3.7707,-3.7776,-3.7782,-3.7787,-3.7808,-3.7816,-3.772,-3.772,-3.772,-3.772,0,-3.7336,-3.7375,-3.7404,-3.7449,-3.7476,-3.7517,-3.7537,-3.7563,-3.7569,-3.7585,-3.7638,-3.7667,-3.7709,-3.7725,-3.773,-3.7787,-3.778,-3.7773,-3.7752,-3.7796,-3.7816,-3.7824,-3.7722,-3.7721,-3.7721,-3.7721,0,0,-3.7387,-3.7442,-3.7452,-3.7473,-3.7515,-3.7546,-3.7588,-3.763,-3.7651,-3.7684,-3.7719,-3.7774,-3.7768,-3.7792,-3.7801,-3.7829,-3.7876,-3.7818,-3.7819,-3.7826,-3.794,-3.7944,-3.7952,-3.7876,-3.7878,-3.7879,-3.7937,0,-3.7439,-3.7513,-3.7529,-3.7593,-3.7629,-3.7635,-3.7672,-3.7702,-3.7719,-3.7753,-3.7773,-3.7811,-3.7801,-3.7815,-3.7843,-3.7864,-3.7899,-3.7861,-3.7908,-3.7909,-3.7896,-3.7963,-3.7966,-3.8019,-3.7945,-3.7946,-3.7947,0,-3.7509,-3.7544,-3.7612,-3.765,-3.7666,-3.7699,-3.7739,-3.7772,-3.7807,-3.7818,-3.7846,-3.7853,-3.7897,-3.7877,-3.7939,-3.7913,-3.7934,-3.7948,-3.795,-3.7952,-3.7928,-3.7965,-3.8036,-3.8043,-3.7959,-3.7958,-3.7957,0,-3.7538,-3.7603,-3.7652,-3.767,-3.7716,-3.7739,-3.776,-3.7793,-3.7818,-3.7854,-3.787,-3.7911,-3.7932,-3.7964,-3.7982,-3.7966,-3.8042,-3.8023,-3.8051,-3.8051,-3.8064,-3.8062,-3.8137,-3.8082,-3.8082,-3.8082,-3.8082,0,-3.7593,-3.7633,-3.7665,-3.7695,-3.7741,-3.776,-3.7806,-3.7826,-3.7857,-3.7891,-3.79,-3.7932,-3.7955,-3.799,-3.8005,-3.8053,-3.8064,-3.8074,-3.8076,-3.8071,-3.807,-3.8083,-3.8079,-3.8084,-3.8083,-3.8083,-3.8083,0,-3.7631,-3.7654,-3.7708,-3.7749,-3.776,-3.7792,-3.7827,-3.7857,-3.7876,-3.792,-3.7931,-3.7961,-3.8004,-3.8026,-3.8079,-3.8089,-3.8143,-3.8145,-3.8131,-3.8131,-3.8157,-3.8154,-3.8241,-3.8253,-3.8192,-3.8193,-3.8193,0,-3.7663,-3.7695,-3.774,-3.7764,-3.7785,-3.7823,-3.7849,-3.787,-3.7896,-3.794,-3.7964,-3.8008,-3.8043,-3.8111,-3.8137,-3.8179,-3.818,-3.8208,-3.8186,-3.818,-3.8178,-3.8175,-3.8178,-3.8211,-3.8211,-3.8212,-3.8212,0,-3.7717,-3.7728,-3.7764,-3.7806,-3.7836,-3.787,-3.7903,-3.7922,-3.7949,-3.7978,-3.8022,-3.805,-3.8105,-3.8148,-3.8191,-3.8213,-3.8217,-3.822,-3.8228,-3.8221,-3.8211,-3.8216,-3.8139,-3.8217,-3.8216,-3.8216,-3.8216,-3.8215,-3.7752,-3.7781,-3.7817,-3.7858,-3.7886,-3.7917,-3.7947,-3.7971,-3.8008,-3.8054,-3.8065,-3.8112,-3.8148,-3.8207,-3.8231,-3.8268,-3.8262,-3.8274,-3.8277,-3.8279,-3.8279,-3.8208,-3.8276,-3.8276,-3.8276,-3.8276,-3.8276,0,-3.7806,-3.783,-3.7868,-3.7914,-3.7947,-3.795,-3.7987,-3.8014,-3.8055,-3.8089,-3.8124,-3.8175,-3.8218,-3.8249,-3.8292,-3.8316,-3.8319,-3.8327,-3.8324,-3.8328,-3.8283,-3.827,-3.8323,-3.8323,-3.8323,-3.8323,-3.8323,-3.8323,-3.7837,-3.7885,-3.7901,-3.7963,-3.7988,-3.8033,-3.8055,-3.8084,-3.8111,-3.8168,-3.8203,-3.8224,-3.8257,-3.8303,-3.8343,-3.8351,-3.8366,-3.8373,-3.8381,-3.8337,-3.8332,-3.8327,-3.8315,-3.8376,-3.8377,-3.8423,-3.8424,-3.8424]},{"header":{"parameterUnit":"m.s-1","parameterCategory":1,"la1":30.2991,"la2":30.254,"lo1":-89.0895,"lo2":-89.0444,"dy":0.0017,"dx":0.0017,"nx":28,"ny":28,"refTime":"2024-04-07T21:00:00:Z","depth":0,"parameterNumber":3,"parameterNumberName":"V-component_of_WINDS"},"data":[0,0,0,0,0,0,0,0,0,0,0,0,0,0,0,0,0,0,0,0,0,0,0,0,0,0,0,0,0,0,0,0,0,0,0,0,0,0,0,0,0,0,0,0,0,0,0,0,0,0,0,0,0,0,0,0,0,0,3.9128,3.9128,0,3.9125,3.9125,3.9125,3.918,3.9182,3.9183,3.9185,3.9177,3.9175,3.9174,0,0,0,0,0,0,0,0,0,0,0,0,0,3.9179,3.9178,3.9128,3.9128,3.9128,3.9125,3.9125,3.9125,3.918,3.9182,3.9184,3.9185,3.9178,3.9176,3.9174,0,0,0,0,0,0,0,0,0,0,0,0,0,3.9164,3.9177,3.9128,3.9155,3.9158,3.9125,3.9125,3.9125,3.918,3.9182,3.9184,3.9186,3.9178,3.9176,3.9173,3.9113,0,0,3.9166,3.9165,0,0,0,0,0,0,0,0,3.9165,3.9162,3.9151,3.9153,3.9156,3.9156,3.914,3.9121,3.9179,3.9171,3.9185,3.9187,3.9168,3.9166,3.9161,3.9113,3.9113,3.9166,3.9164,3.9163,3.9163,0,0,0,0,0,0,0,3.9166,3.9163,3.9127,3.9151,3.9154,3.9167,3.9167,3.9137,3.9157,3.9172,3.9176,3.9175,3.9169,3.9163,3.9161,3.9112,3.9166,3.9164,3.9162,3.9161,3.9017,3.9015,0,0,0,0,0,0,3.9164,3.9163,3.9127,3.9127,3.9166,3.9164,3.9165,3.9153,3.9157,3.916,3.9173,3.9178,3.9166,3.9164,3.9161,3.9092,3.9163,3.9161,3.916,3.9019,3.9017,3.9014,0,0,0,0,0,0,3.9165,3.916,3.9127,3.9146,3.9143,3.9161,3.9148,3.9152,3.9146,3.9158,3.9162,3.9163,3.9168,3.9164,3.9125,3.9092,3.916,3.9158,3.9022,3.9019,3.9015,3.8953,0,0,0,0,0,0,3.9166,3.916,3.9138,3.9145,3.9142,3.9092,3.9146,3.915,3.9142,3.9148,3.915,3.9152,3.9169,3.9129,3.9123,3.909,3.9156,3.9025,3.9021,3.9016,3.8958,3.8948,3.8939,0,0,0,0,0,3.9168,3.9119,3.9137,3.9132,3.9115,3.909,3.9088,3.911,3.9139,3.9117,3.9125,3.9152,3.9097,3.9124,3.9118,3.9084,3.9027,3.9022,3.9017,3.8962,3.895,3.8939,0,0,0,0,0,0,3.9105,3.912,3.914,3.9093,3.909,3.91,3.9072,3.9096,3.9084,3.909,3.9116,3.9116,3.9073,3.9075,3.9105,3.9027,3.9067,3.906,3.9028,3.9016,3.9007,3.9007,3.9154,0,0,0,0,0,3.9086,3.9067,3.908,3.9037,3.9035,3.9054,3.9044,3.9062,3.9059,3.9058,3.9063,3.9059,3.9041,3.9029,3.9012,3.8959,3.896,3.8932,3.8923,3.8915,3.8909,3.8882,3.887,3.8996,3.8996,3.8997,0,0,3.9046,3.9052,3.9038,3.9025,3.9025,3.9003,3.9052,3.9027,3.9011,3.9053,3.9018,3.9022,3.9019,3.8973,3.8953,3.8973,3.8874,3.8908,3.8902,3.89,3.8875,3.8863,3.8852,3.8993,3.8993,3.8994,0,0,3.8963,3.8965,3.893,3.893,3.893,3.8943,3.8935,3.8942,3.8946,3.8912,3.8944,3.8925,3.8893,3.889,3.8884,3.8802,3.8826,3.8796,3.8745,3.8719,3.8709,3.87,3.8672,3.8661,3.8789,3.8789,3.8789,0,3.8912,3.8882,3.8909,3.8882,3.8876,3.8916,3.8881,3.8878,3.8872,3.8867,3.889,3.8853,3.8853,3.8808,3.8788,3.8781,3.8773,3.8795,3.8708,3.87,3.8692,3.8665,3.8654,3.8786,3.8786,3.8786,3.8787,0,3.8821,3.88,3.8772,3.8768,3.8758,3.8727,3.8748,3.8735,3.8754,3.8764,3.8729,3.8731,3.8718,3.8708,3.8725,3.8665,3.8678,3.8704,3.8745,3.8676,3.8651,3.8641,3.878,3.8782,3.8783,3.8784,0,0,3.8697,3.871,3.8699,3.8699,3.8703,3.8687,3.8657,3.8646,3.8635,3.8629,3.8606,3.8579,3.8604,3.8598,3.8615,3.8591,3.8527,3.8621,3.8621,3.8604,3.8463,3.8444,3.8432,3.8544,3.8542,3.8541,3.8464,0,3.8617,3.857,3.8594,3.8543,3.8524,3.8563,3.8538,3.8537,3.8546,3.8531,3.854,3.8522,3.8556,3.8552,3.8531,3.854,3.85,3.8545,3.8522,3.8521,3.8522,3.8418,3.8398,3.8325,3.8454,3.8453,3.8451,0,3.8517,3.8511,3.8459,3.8469,3.8461,3.8438,3.8431,3.8416,3.8416,3.8424,3.8418,3.8441,3.8413,3.8453,3.8415,3.8446,3.8438,3.8441,3.8438,3.8437,3.8482,3.8415,3.8302,3.8292,3.8436,3.8437,3.8438,0,3.8434,3.8411,3.8378,3.8376,3.8386,3.837,3.8373,3.8375,3.8367,3.836,3.8355,3.8343,3.8337,3.8328,3.8347,3.8374,3.8306,3.8348,3.8312,3.8312,3.8296,3.8297,3.8181,3.829,3.829,3.829,3.829,0,3.8342,3.8309,3.8341,3.8321,3.8285,3.8313,3.8276,3.8283,3.8285,3.8267,3.8298,3.8279,3.8306,3.829,3.8304,3.8271,3.8267,3.8273,3.8278,3.8271,3.827,3.8266,3.8272,3.8287,3.8288,3.8288,3.8289,0,3.8243,3.8263,3.823,3.8243,3.8245,3.8218,3.8229,3.821,3.8222,3.8198,3.8194,3.8212,3.8195,3.8214,3.8197,3.8207,3.8162,3.8174,3.8163,3.8166,3.813,3.8134,3.8008,3.7993,3.811,3.8109,3.8108,0,3.8184,3.816,3.8171,3.8162,3.8164,3.8147,3.814,3.8166,3.8157,3.8157,3.8138,3.8124,3.8114,3.8085,3.8096,3.8084,3.8095,3.8052,3.8094,3.8088,3.8096,3.8098,3.8096,3.8044,3.8042,3.8041,3.804,0,3.8077,3.8089,3.8078,3.8071,3.8062,3.8057,3.8054,3.8044,3.8071,3.806,3.8044,3.8036,3.8021,3.8006,3.7998,3.8,3.8024,3.8027,3.8019,3.8012,3.8007,3.801,3.8141,3.803,3.8031,3.8032,3.8032,3.8033,3.7997,3.7978,3.7984,3.7971,3.7972,3.7969,3.7953,3.7964,3.7952,3.7942,3.7958,3.7938,3.794,3.7931,3.7931,3.7915,3.7933,3.792,3.7917,3.7914,3.7909,3.8009,3.7913,3.7914,3.7914,3.7914,3.7914,0,3.7893,3.7899,3.7887,3.7884,3.7874,3.7899,3.7898,3.7888,3.787,3.7871,3.7861,3.7843,3.783,3.784,3.7829,3.7815,3.7826,3.7811,3.7813,3.7813,3.7893,3.7902,3.7802,3.7802,3.7802,3.7802,3.7802,3.7802,3.7838,3.7808,3.782,3.7791,3.7797,3.7779,3.7777,3.7774,3.7775,3.7754,3.7744,3.7752,3.7756,3.7746,3.7735,3.7738,3.7733,3.7714,3.7722,3.7796,3.7807,3.7818,3.7826,3.7713,3.7713,3.7644,3.7643,3.7642]}]]